User: anonymous   Login
Location: *
(17.3280°S, 114.7300°W)
Time: 10:37:38
(UTC+00:00)
Language:

Meteor 2-1 Rocket - Orbit

View from above orbital plane
View from above orbital plane
View from above satellite
View from above satellite

Ground track
Ground track

The orbit data is extracted from the following two-line orbital elements,

1  8027U 75064B   20304.78478487 +.00000017 +00000-0 +25013-5 0  9995
2  8027 081.2963 309.4356 0053631 034.6461 325.8183 14.07364425325444
Epoch (UTC): 30 October 2020 18:50:05
Eccentricity: 0.0053631
inclination: 81.2963°
perigee height: 829 km
apogee height: 907 km
right ascension of ascending node: 309.4356°
argument of perigee: 34.6461°
revolutions per day: 14.07364425
mean anomaly at epoch: 325.8183°
orbit number at epoch: 32544

The dashed part of the orbit path shows where the satellite is in the earth's shadow,  

DLR